Regional Weather Roundup
Issued by NWS

Home | Current Version | Previous Version | Graphics & Text | Print | Product List | Glossary On
Versions: 1 2 3 4 5 6 7 8 9 10 11 12 13 14 15 16 17 18 19 20 21 22 23 24 25 26 27 28 29 30 31 32 33 34 35 36 37 38 39 40 41 42 43 44 45 46 47 48 49 50
000
ASUS43 KBIS 061810
RWRND

NORTH DAKOTA REGIONAL WEATHER ROUNDUP
NATIONAL WEATHER SERVICE BISMARCK ND
100 PM CDT MON JUL 06 2015

NOTE: "FAIR" INDICATES FEW OR NO CLOUDS BELOW 12,000 FEET WITH NO
SIGNIFICANT WEATHER AND/OR OBSTRUCTIONS TO VISIBILITY.


NDZ001>003-009>011-017-061900-
NORTHWEST NORTH DAKOTA

CITY           SKY/WX    TMP DP  RH WIND       PRES   REMARKS
WILLISTON      CLOUDY    66  49  54 N12       30.20S HAZE
6HR MIN TEMP:  57; 6HR MAX TEMP:  68;

MINOT          CLOUDY    61  50  67 NW7       30.18R
MINOT AFB      PTSUNNY   61  54  77 N5        30.17S
$$

NDZ018>021-031>035-040>046-061900-
SOUTHWEST NORTH DAKOTA

CITY           SKY/WX    TMP DP  RH WIND       PRES   REMARKS
BISMARCK       PTSUNNY   70  51  51 NW15      30.16S HAZE
6HR MIN TEMP:  60; 6HR MAX TEMP:  70;

DICKINSON      PTSUNNY   67  50  54 N12       30.18S
GARRISON         N/A     63  52  67 N5        30.16S
6HR MIN TEMP:  56; 6HR MAX TEMP:  65;

HETTINGER ARPT CLOUDY    66  50  56 NW9       30.21S
$$

NDZ004>008-012>016-024-026-027-054-061900-
NORTHEAST NORTH DAKOTA

CITY           SKY/WX    TMP DP  RH WIND       PRES   REMARKS
GRAND FORKS    CLOUDY    61  49  64 N15       30.10S
GRND FRKS AFB  PTSUNNY   62  49  61 N12G20    30.11S
DEVILS LAKE    MOSUNNY   63  46  55 NW13      30.12F
$$

NDZ022-023-025-028>030-036>039-047>053-061900-
SOUTHEAST NORTH DAKOTA

CITY           SKY/WX    TMP DP  RH WIND       PRES   REMARKS
FARGO          MOSUNNY   66  49  54 N18G26    30.08R
6HR MIN TEMP:  60; 6HR MAX TEMP:  66;

JAMESTOWN      MOSUNNY   66  51  58 N12       30.12S
$$



USA.gov is the U.S. government's official web portal to all federal, state and local government web resources and services.